This demonstration page uses our WeatherBlox Daily Observations layout. Learn more.

Left ArrowRight Arrow

39.01783, -85.05884

Hourly Observations for February 13, 2021

Temp ( °F °C ) Dew Point ( °F °C ) Humidity (%) Winds ( mph kmh ) Pressure ( in mb ) Visibility ( mi km ) Precip ( " mm )
12:24 am 00:24 Cloudy 25 -3.9 17 -8.3 72 72 NNE 9 15 30.28 1025 8 13 0.00 0.00
12:52 am 00:52 Cloudy 25 -3.9 17 -8.3 72 72 NNE 9 15 30.24 1024 8 13 0.00 0.00
1:52 am 01:52 Cloudy 25 -3.9 17 -8.3 72 72 NNE 13 20 30.22 1023 8 13 0.00 0.00
2:52 am 02:52 Cloudy 25 -3.9 17 -8.3 72 72 NNE 10 17 30.20 1023 8 13 0.00 0.00
3:52 am 03:52 Cloudy 25 -3.9 17 -8.3 72 72 NE 9 15 30.18 1022 8 13 0.00 0.00
4:17 am 04:17 Cloudy 25 -3.9 17 -8.3 72 72 NNE 12 19 30.20 1023 8 13 0.00 0.00
4:42 am 04:42 Cloudy 25 -3.9 17 -8.3 72 72 NNE 13 20 30.20 1023 8 13 0.00 0.00
4:52 am 04:52 Cloudy 25 -3.9 17 -8.3 72 72 NNE 12 19 30.16 1021 8 13 0.00 0.00
5:52 am 05:52 Cloudy 24 -4.4 17 -8.3 75 75 N 7 11 30.17 1022 8 13 0.00 0.00
6:52 am 06:52 Cloudy 24 -4.4 17 -8.3 75 75 N 10 17 30.16 1021 7 11 0.00 0.00
7:52 am 07:52 Cloudy 24 -4.4 17 -8.3 75 75 N 9 15 30.16 1022 7 11 0.00 0.00
8:52 am 08:52 Cloudy with Haze 24 -4.4 17 -8.3 75 75 N 9 15 30.17 1022 5 8 0.00 0.00
9:52 am 09:52 Cloudy with Haze 25 -3.9 18 -7.8 75 75 NNE 6 9 30.15 1021 6 10 0.00 0.00
10:52 am 10:52 Cloudy with Haze 26 -3.3 18 -7.8 71 71 N 6 9 30.16 1021 6 10 0.00 0.00
11:52 am 11:52 Cloudy with Haze 26 -3.3 18 -7.8 71 71 NNW 8 13 30.15 1021 6 10 0.00 0.00
12:52 pm 12:52 Cloudy with Haze 26 -3.3 18 -7.8 71 71 NNW 8 13 30.13 1020 6 10 0.00 0.00
1:52 pm 13:52 Cloudy 26 -3.3 18 -7.8 71 71 NNW 9 15 30.10 1019 7 11 0.00 0.00
2:52 pm 14:52 Cloudy 26 -3.3 18 -7.8 71 71 NNW 10 17 30.10 1019 7 11 0.00 0.00
3:52 pm 15:52 Cloudy with Haze 26 -3.3 18 -7.8 71 71 NW 9 15 30.11 1020 6 10 0.00 0.00
4:52 pm 16:52 Cloudy 26 -3.3 18 -7.8 71 71 NNW 10 17 30.12 1020 7 11 0.00 0.00
5:52 pm 17:52 Cloudy with Haze 25 -3.9 18 -7.8 75 75 N 13 20 30.14 1021 6 10 0.00 0.00
6:52 pm 18:52 Cloudy 25 -3.9 18 -7.8 75 75 N 8 13 30.15 1021 7 11 0.00 0.00
7:26 pm 19:26 Cloudy with Haze 25 -3.9 19 -7.2 78 78 N 7 11 30.19 1022 6 10 0.00 0.00
7:52 pm 19:52 Cloudy with Haze 25 -3.9 19 -7.2 78 78 NNW 7 11 30.17 1022 6 10 0.00 0.00
8:52 pm 20:52 Cloudy with Haze 24 -4.4 18 -7.8 77 77 NNW 15 24 30.19 1022 6 10 0.00 0.00
9:52 pm 21:52 Cloudy with Haze 24 -4.4 18 -7.8 77 77 NNW 8 13 30.21 1023 6 10 0.00 0.00
10:52 pm 22:52 Cloudy with Haze 24 -4.4 17 -8.3 75 75 N 9 15 30.23 1024 6 10 0.00 0.00
11:52 pm 23:52 Cloudy 24 -4.4 17 -8.3 75 75 N 13 20 30.23 1024 7 11 0.00 0.00

Powered by AerisWeather